When you browse on this site, cookies collect data to enhance your experience and personalize the content and advertising you see.
Visit our Privacy Policy to learn more. By continuing to use the site, you agree to this use of cookies and data.
  • In Portugal
  • List of Countries
  • For 7 days
  • Water Temperature
  • Satellite Maps
  • Weather Map
  • Weather Widgets
  • user-avatar
    Login

    Hourly Weather Sherpur

    Today, 24 July, Wednesday

    Time Temperature Precipitation Wind Pressure Humidity
    00:00 +25°C° 0 mm 1 mps 608 mmHg 40%
    01:00 +25°C° 0 mm 1 mps 608 mmHg 41%
    02:00 +24°C° 0 mm 1 mps 608 mmHg 42%
    03:00 +23°C° 0 mm 1 mps 607 mmHg 41%
    04:00 +23°C° 0 mm 1 mps 607 mmHg 40%
    05:00 +22°C° 0 mm 1 mps 607 mmHg 41%
    06:00 +24°C° 0 mm 1 mps 608 mmHg 36%
    07:00 +27°C° 0 mm 1 mps 609 mmHg 31%
    08:00 +29°C° 0 mm 1 mps 610 mmHg 26%
    09:00 +30°C° 0 mm 1 mps 610 mmHg 22%
    10:00 +32°C° 0 mm 1 mps 610 mmHg 19%
    11:00 +33°C° 0 mm 1 mps 610 mmHg 15%
    12:00 +36°C° 0 mm 2 mps 610 mmHg 14%
    13:00 +37°C° 0 mm 2 mps 611 mmHg 12%
    14:00 +38°C° 0 mm 2 mps 611 mmHg 11%
    15:00 +38°C° 0 mm 3 mps 610 mmHg 11%
    16:00 +38°C° 0 mm 4 mps 610 mmHg 11%
    17:00 +39°C° 0 mm 5 mps 610 mmHg 11%
    18:00 +36°C° 0 mm 4 mps 609 mmHg 14%
    19:00 +33°C° 0 mm 4 mps 609 mmHg 17%
    20:00 +30°C° 0 mm 3 mps 608 mmHg 20%
    21:00 +29°C° 0 mm 3 mps 608 mmHg 22%
    22:00 +28°C° 0 mm 3 mps 608 mmHg 25%
    23:00 +26°C° 0 mm 2 mps 607 mmHg 27%

    Tomorrow, 25 July, Thursday

    Time Temperature Precipitation Wind Pressure Humidity
    00:00 +25°C° 0 mm 2 mps 607 mmHg 28%
    01:00 +24°C° 0 mm 2 mps 607 mmHg 29%
    02:00 +24°C° 0 mm 1 mps 606 mmHg 30%
    03:00 +23°C° 0 mm 1 mps 606 mmHg 31%
    04:00 +22°C° 0 mm 1 mps 606 mmHg 31%
    05:00 +22°C° 0 mm 1 mps 605 mmHg 32%
    06:00 +24°C° 0 mm 1 mps 607 mmHg 28%
    07:00 +26°C° 0 mm 1 mps 608 mmHg 24%
    08:00 +28°C° 0 mm 1 mps 609 mmHg 19%
    09:00 +30°C° 0 mm 1 mps 609 mmHg 17%
    10:00 +32°C° 0 mm 1 mps 609 mmHg 15%
    11:00 +34°C° 0 mm 2 mps 610 mmHg 13%
    12:00 +35°C° 0 mm 2 mps 610 mmHg 12%
    13:00 +37°C° 0 mm 2 mps 609 mmHg 11%
    14:00 +38°C° 0 mm 2 mps 609 mmHg 10%
    15:00 +38°C° 0 mm 2 mps 609 mmHg 10%
    16:00 +38°C° 0 mm 3 mps 609 mmHg 10%
    17:00 +38°C° 0 mm 4 mps 609 mmHg 10%
    18:00 +36°C° 0 mm 4 mps 608 mmHg 14%
    19:00 +33°C° 0 mm 3 mps 608 mmHg 17%
    20:00 +30°C° 0 mm 3 mps 607 mmHg 20%
    21:00 +28°C° 0 mm 2 mps 607 mmHg 23%
    22:00 +27°C° 0 mm 2 mps 607 mmHg 25%
    23:00 +26°C° 0 mm 1 mps 606 mmHg 28%

    Day after tomorrow, 26 July, Friday

    Time Temperature Precipitation Wind Pressure Humidity
    00:00 +25°C° 0.1 mm 1 mps 606 mmHg 28%
    01:00 +25°C° 0.1 mm 1 mps 606 mmHg 29%
    02:00 +24°C° 0.1 mm 1 mps 605 mmHg 29%
    03:00 +23°C° 0 mm 1 mps 605 mmHg 31%
    04:00 +22°C° 0 mm 1 mps 605 mmHg 33%
    05:00 +22°C° 0 mm 1 mps 605 mmHg 35%
    06:00 +24°C° 0 mm 1 mps 606 mmHg 32%
    07:00 +26°C° 0 mm 1 mps 607 mmHg 30%
    08:00 +27°C° 0 mm 1 mps 608 mmHg 27%
    09:00 +29°C° 0 mm 1 mps 608 mmHg 24%
    10:00 +31°C° 0 mm 2 mps 608 mmHg 20%
    11:00 +32°C° 0 mm 2 mps 609 mmHg 17%
    12:00 +34°C° 0 mm 2 mps 609 mmHg 16%
    13:00 +35°C° 0 mm 3 mps 609 mmHg 15%
    14:00 +37°C° 0 mm 3 mps 609 mmHg 14%
    15:00 +36°C° 0 mm 4 mps 609 mmHg 16%
    16:00 +36°C° 0 mm 5 mps 608 mmHg 19%
    17:00 +36°C° 0 mm 6 mps 608 mmHg 22%
    18:00 +33°C° 0 mm 5 mps 607 mmHg 33%
    19:00 +29°C° 0 mm 4 mps 607 mmHg 45%
    20:00 +27°C° 0 mm 3 mps 606 mmHg 56%
    21:00 +26°C° 0.1 mm 2 mps 606 mmHg 59%
    22:00 +25°C° 0.1 mm 2 mps 606 mmHg 62%
    23:00 +24°C° 0.1 mm 1 mps 606 mmHg 66%

    27 July, Saturday

    Time Temperature Precipitation Wind Pressure Humidity
    00:00 +24°C° 0.2 mm 1 mps 606 mmHg 66%
    01:00 +23°C° 0.2 mm 1 mps 606 mmHg 67%
    02:00 +23°C° 0.2 mm 1 mps 605 mmHg 68%
    03:00 +22°C° 0.1 mm 1 mps 605 mmHg 68%
    04:00 +22°C° 0.1 mm 1 mps 605 mmHg 68%
    05:00 +19°C° 0.1 mm 0 mps 605 mmHg 68%
    06:00 +23°C° 0 mm 1 mps 606 mmHg 61%
    07:00 +24°C° 0 mm 1 mps 606 mmHg 54%
    08:00 +26°C° 0 mm 1 mps 607 mmHg 47%
    09:00 +28°C° 0 mm 1 mps 608 mmHg 38%
    10:00 +29°C° 0 mm 1 mps 608 mmHg 29%
    11:00 +31°C° 0 mm 1 mps 609 mmHg 21%
    12:00 +32°C° 0 mm 2 mps 609 mmHg 18%
    13:00 +35°C° 0 mm 3 mps 609 mmHg 15%
    14:00 +36°C° 0 mm 3 mps 609 mmHg 13%
    15:00 +36°C° 0 mm 4 mps 609 mmHg 13%
    16:00 +36°C° 0 mm 5 mps 609 mmHg 13%
    17:00 +36°C° 0 mm 5 mps 609 mmHg 14%
    18:00 +34°C° 0 mm 5 mps 608 mmHg 22%
    19:00 +30°C° 0 mm 4 mps 608 mmHg 30%
    20:00 +28°C° 0 mm 4 mps 607 mmHg 38%
    21:00 +27°C° 0 mm 3 mps 607 mmHg 45%
    22:00 +25°C° 0 mm 2 mps 607 mmHg 53%
    23:00 +24°C° 0 mm 2 mps 607 mmHg 60%

    28 July, Sunday

    Time Temperature Precipitation Wind Pressure Humidity
    00:00 +24°C° 0.1 mm 1 mps 607 mmHg 63%
    01:00 +23°C° 0.1 mm 1 mps 607 mmHg 65%
    02:00 +22°C° 0.1 mm 1 mps 606 mmHg 68%
    03:00 +22°C° 0 mm 1 mps 606 mmHg 69%
    04:00 +21°C° 0 mm 1 mps 606 mmHg 69%
    05:00 +21°C° 0 mm 1 mps 606 mmHg 70%
    06:00 +22°C° 0 mm 1 mps 607 mmHg 64%
    07:00 +24°C° 0 mm 1 mps 608 mmHg 57%
    08:00 +25°C° 0 mm 1 mps 608 mmHg 50%
    09:00 +27°C° 0 mm 1 mps 609 mmHg 42%
    10:00 +29°C° 0 mm 2 mps 609 mmHg 33%
    11:00 +31°C° 0 mm 2 mps 610 mmHg 24%
    12:00 +33°C° 0 mm 3 mps 610 mmHg 22%
    13:00 +34°C° 0 mm 3 mps 610 mmHg 21%
    14:00 +35°C° 0 mm 4 mps 610 mmHg 19%
    15:00 +35°C° 0 mm 4 mps 610 mmHg 21%
    16:00 +34°C° 0 mm 5 mps 610 mmHg 24%
    17:00 +34°C° 0 mm 5 mps 610 mmHg 26%
    18:00 +32°C° 0 mm 4 mps 609 mmHg 37%
    19:00 +29°C° 0 mm 4 mps 609 mmHg 48%
    20:00 +27°C° 0 mm 3 mps 609 mmHg 59%
    21:00 +26°C° 0.1 mm 2 mps 609 mmHg 64%
    22:00 +25°C° 0.1 mm 2 mps 609 mmHg 70%
    23:00 +24°C° 0.1 mm 1 mps 609 mmHg 75%

    29 July, Monday

    Time Temperature Precipitation Wind Pressure Humidity
    00:00 +24°C° 0.1 mm 1 mps 608 mmHg 76%
    01:00 +23°C° 0.1 mm 1 mps 608 mmHg 78%
    02:00 +23°C° 0.1 mm 1 mps 608 mmHg 80%
    03:00 +22°C° 0 mm 1 mps 608 mmHg 81%
    04:00 +22°C° 0 mm 1 mps 608 mmHg 82%
    05:00 +22°C° 0 mm 1 mps 608 mmHg 84%
    06:00 +23°C° 0 mm 1 mps 608 mmHg 79%
    07:00 +24°C° 0 mm 1 mps 609 mmHg 74%
    08:00 +25°C° 0 mm 1 mps 609 mmHg 69%
    09:00 +26°C° 0 mm 2 mps 610 mmHg 60%
    10:00 +28°C° 0 mm 2 mps 610 mmHg 50%
    11:00 +30°C° 0 mm 2 mps 611 mmHg 41%
    12:00 +31°C° 0 mm 3 mps 611 mmHg 36%
    13:00 +33°C° 0 mm 3 mps 611 mmHg 31%
    14:00 +35°C° 0 mm 4 mps 611 mmHg 26%
    15:00 +35°C° 0 mm 4 mps 611 mmHg 26%
    16:00 +35°C° 0 mm 4 mps 611 mmHg 26%
    17:00 +35°C° 0 mm 3 mps 610 mmHg 25%
    18:00 +33°C° 0 mm 3 mps 610 mmHg 31%
    19:00 +31°C° 0 mm 3 mps 610 mmHg 37%
    20:00 +29°C° 0 mm 2 mps 609 mmHg 42%
    21:00 +28°C° 0 mm 2 mps 609 mmHg 45%
    22:00 +27°C° 0 mm 2 mps 609 mmHg 47%
    23:00 +26°C° 0 mm 1 mps 609 mmHg 50%
    Show more